sat.trackr.live / text

‹ back to catalog

ZHONGXING-1D

NORAD 49505 · 2021-114A

PAYLOAD ACTIVE UNKNOWN

§ Identity

Operator
Country
PRC
Launch date
2021-11-26
Launch site
XICLF
Launch vehicle
Mass (kg)
RCS (m²)

Purposes: comms

External: N2YO · Heavens-Above · Gunter

§ Orbital elements

Epoch: 2026-09-20T00:26:00.885984Z

Period
1,436.13 min
Inclination
0.0491°
Eccentricity
0.0001264
Mean motion
1.00269178 rev/d
Perigee alt
35,782.0 km
Apogee alt
35,792.7 km
Semi-major
42,165.5 km
B*
0.0000e+0
RAAN
311.0639°
Arg perigee
306.4793°
Mean anomaly
238.0474°
Rev number
1,777

§ Raw data

ZHONGXING-1D1 49505U 21114A   26263.01806581 -.00000341  00000+0  00000+0 0  99972 49505   0.0491 311.0639 0001264 306.4793 238.0474  1.00269178 17771

JSON: /api/v1/satellites/49505 · /tle

For live sub-satellite position, see the globe view (requires WebGL).

§ Visibility from observer

Set your observer location to see the next 7 days of passes ≥ 10°. The values pass through the URL so the page stays shareable.

No JS? Fill the form by hand. The geolocation button needs JavaScript.